CW6004 Weather Reports


time (UTC)temp
C
wind
direction
speed
KPH
gust
KPH
rain 1hr
cm
rain 24hr
cm
rain mn
cm
humidity
%
barometer
mb
20260504160324 23 30 3.2 12.9 0.00 0.00 0.00 42 1001.8
20260504150838 22 314 8.0 12.9 0.00 0.00 0.00 39 1001.0
20260504150344 22 278 9.7 12.9 0.00 0.00 0.00 39 1001.0
20260504141318 18 342 3.2 11.3 0.00 0.00 0.00 58 1001.4
20260504140824 17 321 0.0 0.0 0.00 0.00 0.00 61 1001.3
20260504140330 17 76 0.0 0.0 0.00 0.00 0.00 63 1001.1
20260504130814 10 82 0.0 0.0 0.00 0.00 0.00 82 1001.5
20260504130338 9 83 0.0 0.0 0.00 0.00 0.00 84 1001.5
20260504110315 5 295 0.0 0.0 0.00 0.00 0.00 90 1001.7
20260504100332 6 295 0.0 0.0 0.00 0.00 0.00 90 1001.8
20260504081825 7 193 0.0 0.0 0.00 0.00 0.00 86 1002.4
20260504081313 7 193 0.0 0.0 0.00 0.00 0.00 86 1002.5
20260504080820 7 193 0.0 0.0 0.00 0.00 0.00 87 1002.5
20260504080326 7 193 0.0 0.0 0.00 0.00 0.00 87 1002.5
20260504070339 8 193 0.0 0.0 0.00 0.00 0.00 85 1002.8
20260504050339 10 193 0.0 0.0 0.00 0.00 0.00 80 1004.5
20260504045830 10 193 0.0 0.0 0.00 0.00 0.00 79 1004.7
20260504045350 10 193 0.0 0.0 0.00 0.00 0.00 77 1004.7
20260504044824 10 193 0.0 0.0 0.00 0.00 0.00 74 1004.8
20260504044343 10 193 0.0 0.0 0.00 0.00 0.00 73 1004.8
20260504043834 10 193 0.0 0.0 0.00 0.00 0.00 72 1004.8
20260504043354 10 193 0.0 0.0 0.00 0.00 0.00 73 1004.9
20260504042849 10 193 0.0 0.0 0.00 0.00 0.00 74 1005.0
20260504042353 10 193 0.0 0.0 0.00 0.00 0.00 74 1004.9
20260504041818 11 193 0.0 0.0 0.00 0.00 0.00 73 1004.9
20260504041327 11 193 0.0 0.0 0.00 0.00 0.00 73 1005.0
20260504040814 11 193 0.0 0.0 0.00 0.00 0.00 74 1005.0
20260504040320 11 193 0.0 0.0 0.00 0.00 0.00 74 1005.2
20260504035826 11 193 0.0 0.0 0.00 0.00 0.00 74 1005.2
20260504035315 11 193 0.0 0.0 0.00 0.00 0.00 75 1005.3
20260504034819 11 193 0.0 0.0 0.00 0.00 0.00 74 1005.2
20260504034330 12 193 0.0 0.0 0.00 0.00 0.00 74 1005.3
20260504033832 12 193 0.0 0.0 0.00 0.00 0.00 71 1005.3
20260504033339 12 193 0.0 0.0 0.00 0.00 0.00 67 1005.3
20260504032820 12 193 0.0 0.0 0.00 0.00 0.00 65 1005.3
20260504032356 12 193 0.0 0.0 0.00 0.00 0.00 66 1005.3
20260504031823 12 193 0.0 0.0 0.00 0.00 0.00 65 1005.3
20260504031334 13 193 0.0 0.0 0.00 0.00 0.00 64 1005.3
20260504030813 13 193 0.0 0.0 0.00 0.00 0.00 61 1005.3
20260504030319 13 193 0.0 0.0 0.00 0.00 0.00 60 1005.3
20260504025825 13 193 0.0 0.0 0.00 0.00 0.00 60 1005.3
20260504025325 14 193 0.0 0.0 0.00 0.00 0.00 60 1005.2
20260504024830 14 193 0.0 0.0 0.00 0.00 0.00 60 1005.3
20260504024319 15 193 0.0 0.0 0.00 0.00 0.00 59 1005.3
20260504023826 15 193 0.0 0.0 0.00 0.00 0.00 59 1005.3
20260504023314 15 193 0.0 0.0 0.00 0.00 0.00 58 1005.3
20260504022820 15 193 0.0 0.0 0.00 0.00 0.00 58 1005.4
20260504022328 15 193 0.0 0.0 0.00 0.00 0.00 55 1005.4
20260504021814 16 193 0.0 0.0 0.00 0.00 0.00 54 1005.4
20260504021322 16 193 0.0 0.0 0.00 0.00 0.00 54 1005.5
20260504020829 16 193 0.0 0.0 0.00 0.00 0.00 52 1005.5
20260504020317 17 193 0.0 0.0 0.00 0.00 0.00 51 1005.5
20260504015824 17 193 0.0 0.0 0.00 0.00 0.00 50 1005.6
20260504015333 17 193 0.0 0.0 0.00 0.00 0.00 50 1005.6
20260504014819 18 193 0.0 0.0 0.00 0.00 0.00 49 1005.6
20260504014329 18 193 0.0 0.0 0.00 0.00 0.00 48 1005.7
20260504013815 18 193 0.0 3.2 0.00 0.00 0.00 48 1005.7
20260504013325 19 193 0.0 6.4 0.00 0.00 0.00 47 1005.7
20260504012812 19 193 3.2 6.4 0.00 0.00 0.00 43 1005.8
20260504012321 20 174 3.2 4.8 0.00 0.00 0.00 42 1006.0
20260504011826 20 193 3.2 6.4 0.00 0.00 0.00 41 1006.1
20260504011332 20 201 3.2 6.4 0.00 0.00 0.00 40 1006.1
20260504010815 20 187 1.6 4.8 0.00 0.00 0.00 40 1006.1
20260504010317 21 238 1.6 6.4 0.00 0.00 0.00 39 1006.2
20260504005822 21 238 0.0 6.4 0.00 0.00 0.00 37 1006.3
20260504005338 21 220 1.6 4.8 0.00 0.00 0.00 37 1006.3
20260504004826 21 241 3.2 9.7 0.00 0.00 0.00 36 1006.4
20260504004314 21 213 4.8 9.7 0.00 0.00 0.00 36 1006.4
20260504003820 21 241 3.2 9.7 0.00 0.00 0.00 36 1006.4
20260504003328 22 231 3.2 8.0 0.00 0.00 0.00 37 1006.5
20260504002834 22 222 4.8 8.0 0.00 0.00 0.00 36 1006.5
20260504002341 22 271 0.0 4.8 0.00 0.00 0.00 36 1006.6
20260504001847 22 193 3.2 4.8 0.00 0.00 0.00 36 1006.6
20260504001353 22 246 0.0 0.0 0.00 0.00 0.00 34 1006.6
20260504000837 22 246 0.0 4.8 0.00 0.00 0.00 35 1006.7
20260504000343 22 246 0.0 4.8 0.00 0.00 0.00 34 1006.7
20260503235846 22 217 3.2 6.4 0.00 0.00 0.00 33 1006.8
20260503235359 22 191 3.2 8.0 0.00 0.00 0.00 35 1006.8
20260503234851 22 181 3.2 8.0 0.00 0.00 0.00 34 1006.9
20260503234339 22 237 3.2 8.0 0.00 0.00 0.00 36 1007.0
20260503233844 22 275 1.6 4.8 0.00 0.00 0.00 33 1007.0
20260503233340 22 225 0.0 8.0 0.00 0.00 0.00 33 1007.1
20260503232826 22 225 1.6 8.0 0.00 0.00 0.00 33 1007.1
20260503232315 22 229 0.0 4.8 0.00 0.00 0.00 34 1007.2
20260503231821 22 178 0.0 1.6 0.00 0.00 0.00 34 1007.2
20260503231331 22 276 0.0 3.2 0.00 0.00 0.00 32 1007.3
20260503230818 22 317 0.0 4.8 0.00 0.00 0.00 32 1007.2
20260503230326 22 263 1.6 4.8 0.00 0.00 0.00 34 1007.3
20260503225812 22 196 0.0 4.8 0.00 0.00 0.00 33 1007.3
20260503225321 22 360 0.0 6.4 0.00 0.00 0.00 32 1007.3
20260503224827 22 300 3.2 6.4 0.00 0.00 0.00 33 1007.4
20260503224316 22 250 0.0 6.4 0.00 0.00 0.00 32 1007.3
20260503223822 23 273 3.2 6.4 0.00 0.00 0.00 34 1007.4
20260503223331 23 264 3.2 6.4 0.00 0.00 0.00 33 1007.3
20260503222816 23 292 3.2 6.4 0.00 0.00 0.00 32 1007.3
20260503222324 23 273 0.0 4.8 0.00 0.00 0.00 32 1007.3
20260503221830 23 45 0.0 8.0 0.00 0.00 0.00 33 1007.3
20260503221319 23 284 1.6 17.7 0.00 0.00 0.00 31 1007.4
20260503220825 23 288 3.2 17.7 0.00 0.00 0.00 33 1007.4
20260503220333 24 226 4.8 8.0 0.00 0.00 0.00 31 1007.3
20260503215820 24 216 3.2 6.4 0.00 0.00 0.00 30 1007.4
20260503215328 24 304 1.6 8.0 0.00 0.00 0.00 31 1007.4
20260503214833 24 286 1.6 9.7 0.00 0.00 0.00 30 1007.5
20260503214320 25 234 3.2 9.7 0.00 0.00 0.00 29 1007.6
20260503213826 25 286 0.0 9.7 0.00 0.00 0.00 29 1007.6
20260503213315 25 281 3.2 9.7 0.00 0.00 0.00 28 1007.8
20260503212822 26 271 0.0 4.8 0.00 0.00 0.00 29 1007.9
20260503212327 25 323 1.6 6.4 0.00 0.00 0.00 29 1007.9
20260503211817 25 11 3.2 6.4 0.00 0.00 0.00 31 1007.9
20260503211322 25 71 1.6 9.7 0.00 0.00 0.00 30 1008.0
20260503210828 24 260 3.2 9.7 0.00 0.00 0.00 31 1008.1
20260503210334 23 173 0.0 8.0 0.00 0.00 0.00 32 1008.2
20260503205820 24 198 4.8 12.9 0.00 0.00 0.00 30 1008.2
20260503205329 25 188 4.8 12.9 0.00 0.00 0.00 30 1008.3
20260503204832 25 233 6.4 12.9 0.00 0.00 0.00 30 1008.4
20260503204320 26 303 0.0 4.8 0.00 0.00 0.00 28 1008.5
20260503203825 26 275 1.6 4.8 0.00 0.00 0.00 29 1008.5
20260503203315 25 32 0.0 8.0 0.00 0.00 0.00 27 1008.6
20260503202821 25 69 3.2 8.0 0.00 0.00 0.00 31 1008.8
20260503202329 25 323 1.6 8.0 0.00 0.00 0.00 30 1008.8
20260503201815 25 20 3.2 8.0 0.00 0.00 0.00 30 1008.9
20260503201325 25 269 1.6 3.2 0.00 0.00 0.00 28 1009.0
20260503200830 25 163 1.6 4.8 0.00 0.00 0.00 28 1009.0
20260503200318 24 11 1.6 6.4 0.00 0.00 0.00 31 1009.1
20260503195824 23 307 3.2 8.0 0.00 0.00 0.00 33 1009.1
20260503195332 23 278 3.2 8.0 0.00 0.00 0.00 31 1009.1
20260503194819 23 57 0.0 6.4 0.00 0.00 0.00 34 1009.1
20260503194328 23 113 3.2 8.0 0.00 0.00 0.00 33 1009.1
20260503193813 23 124 1.6 8.0 0.00 0.00 0.00 31 1009.4
20260503193322 23 181 3.2 8.0 0.00 0.00 0.00 32 1009.4
20260503192829 23 333 1.6 12.9 0.00 0.00 0.00 30 1009.5
20260503192317 23 193 6.4 12.9 0.00 0.00 0.00 33 1009.6
20260503191824 23 67 3.2 6.4 0.00 0.00 0.00 31 1009.5
20260503191334 24 342 3.2 4.8 0.00 0.00 0.00 29 1009.6
20260503190820 24 264 0.0 8.0 0.00 0.00 0.00 30 1009.6
20260503190328 24 14 3.2 9.7 0.00 0.00 0.00 30 1009.8
20260503185815 24 36 3.2 9.7 0.00 0.00 0.00 30 1009.8
20260503185324 24 25 3.2 11.3 0.00 0.00 0.00 33 1009.8
20260503184810 24 30 3.2 11.3 0.00 0.00 0.00 34 1009.9
20260503184319 24 234 1.6 8.0 0.00 0.00 0.00 33 1010.0
20260503183826 23 40 1.6 6.4 0.00 0.00 0.00 33 1010.1
20260503183315 23 350 1.6 6.4 0.00 0.00 0.00 33 1010.1
20260503182822 23 335 0.0 6.4 0.00 0.00 0.00 35 1010.1
20260503182330 23 329 1.6 6.4 0.00 0.00 0.00 34 1010.0
20260503181816 23 26 0.0 8.0 0.00 0.00 0.00 35 1010.2
20260503181325 23 30 3.2 12.9 0.00 0.00 0.00 32 1010.4
20260503180812 23 360 4.8 11.3 0.00 0.00 0.00 34 1010.4
20260503180318 22 35 3.2 9.7 0.00 0.00 0.00 32 1010.5
20260503175825 22 49 3.2 14.5 0.00 0.00 0.00 35 1010.6
20260503175312 22 42 3.2 14.5 0.00 0.00 0.00 32 1010.7
20260503174818 23 327 4.8 8.0 0.00 0.00 0.00 32 1010.6
20260503174326 23 57 1.6 6.4 0.00 0.00 0.00 36 1010.8
20260503173811 23 39 1.6 8.0 0.00 0.00 0.00 34 1010.9
20260503173321 22 333 3.2 8.0 0.00 0.00 0.00 33 1011.0
20260503172827 22 339 4.8 6.4 0.00 0.00 0.00 34 1011.0
20260503172317 22 313 3.2 8.0 0.00 0.00 0.00 36 1011.0
20260503171823 22 348 4.8 8.0 0.00 0.00 0.00 36 1011.0
20260503171313 22 52 3.2 6.4 0.00 0.00 0.00 36 1011.1
20260503170818 22 277 1.6 6.4 0.00 0.00 0.00 39 1011.1
20260503170324 22 265 0.0 6.4 0.00 0.00 0.00 38 1011.1